This is the latest recevied weather packets stored in our database for station/object N5LSN. If no packets are shown the sender has not sent any weather packets the latest 1 day(s).
| Time | Temp. | Humidity | Pressure | Rain* | Wind** | Luminosity | Snow |
|---|---|---|---|---|---|---|---|
| 1778090340 | 10° C | 98% | 1017 hPa | 0 mm | - | 115 W/m² | - |
| 1778087916 | 11.11° C | 89% | 1016.1 hPa | 0 mm | - | 36 W/m² | - |
| 1778087001 | 11.67° C | 90% | 1016.3 hPa | 0 mm | - | 125 W/m² | - |
| 1778086094 | 11.11° C | 88% | 1016.2 hPa | 0 mm | - | 146 W/m² | - |
| 1778085488 | 11.67° C | 89% | 1016.2 hPa | 0 mm | - | 108 W/m² | - |
| 1778084576 | 11.67° C | 90% | 1016 hPa | 0 mm | - | 303 W/m² | - |
| 1778083358 | 11.11° C | 91% | 1016.1 hPa | 0 mm | - | 167 W/m² | - |
| 1778081615 | 10.56° C | 93% | 1015.8 hPa | 0 mm | - | 346 W/m² | - |
| 1778079798 | 10° C | 97% | 1015.8 hPa | 0 mm | - | 146 W/m² | - |
| 1778079191 | 9.44° C | 99% | 1015.8 hPa | 0 mm | - | 193 W/m² | - |
| 1778078585 | 9.44° C | 99% | 1016.2 hPa | 0 mm | - | 77 W/m² | - |
| 1778077980 | 9.44° C | 99% | 1015.6 hPa | 0 mm | - | 184 W/m² | - |
| 1778077376 | 9.44° C | 99% | 1015.4 hPa | 0 mm | - | 123 W/m² | - |
| 1778076772 | 9.44° C | 99% | 1015.3 hPa | 0 mm | - | 73 W/m² | - |
| 1778076166 | 9.44° C | 99% | 1015 hPa | 0 mm | - | 74 W/m² | - |
| 1778075560 | 9.44° C | 99% | 1015.5 hPa | 0 mm | - | 114 W/m² | - |
| 1778071924 | 9.44° C | 99% | 1015.1 hPa | 0 mm | - | 33 W/m² | - |
| 1778069201 | 10° C | 99% | 1013.6 hPa | 0 mm | - | 13 W/m² | - |
| 1778068898 | 9.44° C | 99% | 1013.5 hPa | 0 mm | - | 18 W/m² | - |
| 1778065268 | 10° C | 99% | 1012.3 hPa | 0 mm | - | 0 W/m² | - |
| 1778064964 | 10° C | 99% | 1011.9 hPa | 0 mm | - | 0 W/m² | - |
| 1778064661 | 10° C | 99% | 1012.4 hPa | 0 mm | - | 0 W/m² | - |
| 1778063450 | 10° C | 99% | 1011.6 hPa | 0 mm | - | 0 W/m² | - |
| 1778063149 | 10° C | 99% | 1011.7 hPa | 0 mm | - | 0 W/m² | - |
| 1778062846 | 10° C | 99% | 1011.8 hPa | 0 mm | - | 0 W/m² | - |
* Rain latest hour (hover to see other rain measurements)
** Current wind speed in m/s (hover to see current wind gust speed)